Weather reports worldwide

Advertisment
Albacete, Spain (8279): temperature & dewpoint: 14.10.2018 16:00:00 - 20.10.2018 16:00:00 (CEST)Albacete, Spain (8279): wind speed & gusts: 14.10.2018 16:00:00 - 20.10.2018 16:00:00 (CEST)Albacete, Spain (8279): wind direction: 14.10.2018 16:00:00 - 20.10.2018 16:00:00 (CEST)Albacete, Spain (8279): reduced air pressure: 14.10.2018 16:00:00 - 20.10.2018 16:00:00 (CEST)Albacete, Spain (8279): precipitation: 14.10.2018 16:00:00 - 20.10.2018 16:00:00 (CEST)
Date & Time tt [°C] td [°C] ff [km/h] ff [kn] fx [km/h] fx [kn] dd ppp [hPa] rr [mm]
20.10.2018 16:00:00 - - - - - - - - -
20.10.2018 15:00:00 19,2 12,6 9 5 31 17 ENE 1017,5 0,0
20.10.2018 14:00:00 20,1 12,3 11 6 30 16 ENE 1017,9 -
20.10.2018 13:00:00 20,3 11,8 8 4 26 14 E 1018,2 0,0
20.10.2018 12:00:00 16,5 12,2 9 5 21 12 E 1019,0 0,0
20.10.2018 11:00:00 14,5 13,8 5 3 16 8 E 1019,4 0,0
20.10.2018 10:00:00 13,2 12,2 6 3 13 7 E 1019,0 0,0
20.10.2018 09:00:00 12,2 10,8 6 3 15 8 E 1018,2 0,0
20.10.2018 08:00:00 12,9 11,7 6 3 15 8 E 1017,8 -
20.10.2018 07:00:00 12,8 11,6 3 1 18 10 E 1018,0 0,0
20.10.2018 06:00:00 12,6 11,4 6 3 14 7 E 1018,1 0,0
20.10.2018 05:00:00 12,4 11,1 4 2 11 6 E 1018,3 0,0
20.10.2018 04:00:00 11,8 9,3 0 0 11 6 N 1018,4 0,0
20.10.2018 03:00:00 12,3 9,3 3 2 9 5 SSE 1017,6 0,0
20.10.2018 02:00:00 12,5 9,3 3 1 13 7 ESE 1017,4 -
20.10.2018 01:00:00 12,0 9,6 0 0 7 4 E 1017,7 0,0
20.10.2018 00:00:00 12,5 9,6 3 1 13 7 ENE 1017,3 0,0
19.10.2018 23:00:00 13,1 9,7 4 2 15 8 ESE 1016,5 0,0
19.10.2018 22:00:00 13,9 8,9 5 3 13 7 ESE 1015,4 0,0
19.10.2018 21:00:00 13,8 12,2 0 0 9 5 NE 1015,0 0,0
19.10.2018 20:00:00 - - - - - - - - -
19.10.2018 19:00:00 16,0 13,7 2 1 12 6 NNE 1012,3 0,0
19.10.2018 18:00:00 16,3 13,8 3 2 11 6 NE 1011,9 0,0
19.10.2018 17:00:00 15,9 14,2 2 1 8 4 NE 1011,9 0,0
19.10.2018 16:00:00 15,6 14,4 1 0 8 4 NNE 1012,0 0,1
19.10.2018 15:00:00 14,8 14,3 0 0 5 3 N 1012,4 1,3
19.10.2018 14:00:00 14,2 13,8 1 1 6 4 NE 1013,0 -
19.10.2018 13:00:00 13,5 13,1 1 0 5 3 ENE 1013,3 0,2
19.10.2018 12:00:00 12,9 12,4 0 0 5 3 N 1013,4 0,0
19.10.2018 11:00:00 11,9 11,4 0 0 0 0 N 1013,4 0,1
19.10.2018 10:00:00 11,4 11,0 0 0 6 3 NNE 1013,0 0,0
19.10.2018 09:00:00 10,8 10,3 0 0 0 0 N 1012,2 0,0
19.10.2018 08:00:00 10,4 9,9 0 0 7 4 N 1012,1 -
19.10.2018 07:00:00 10,8 10,3 0 0 2 1 N 1012,0 0,3
19.10.2018 06:00:00 10,1 9,7 0 0 6 3 N 1012,6 0,0
19.10.2018 05:00:00 10,3 9,8 0 0 0 0 N 1011,4 0,0
19.10.2018 04:00:00 10,9 10,4 0 0 0 0 N 1011,6 0,0
19.10.2018 03:00:00 11,2 10,8 0 0 6 3 N 1011,2 0,0
19.10.2018 02:00:00 11,1 10,6 0 0 6 4 NE 1011,1 -
19.10.2018 01:00:00 11,5 11,0 0 0 0 0 N 1011,4 0,0
19.10.2018 00:00:00 11,7 11,2 0 0 2 1 N 1011,3 0,0
18.10.2018 23:00:00 12,0 11,6 0 0 8 5 SW 1011,1 0,0
18.10.2018 22:00:00 12,0 11,6 1 1 9 5 SE 1011,0 0,0
18.10.2018 21:00:00 12,1 11,7 0 0 11 6 NNW 1010,3 0,6
18.10.2018 20:00:00 11,9 11,4 0 0 10 5 NE 1010,3 -
18.10.2018 19:00:00 12,2 11,4 2 1 16 9 E 1010,0 0,9
18.10.2018 18:00:00 12,5 11,2 5 3 24 13 NE 1009,7 1,0
18.10.2018 17:00:00 13,2 11,6 4 2 16 9 E 1009,7 1,2
18.10.2018 16:00:00 13,7 10,6 7 4 34 19 NE 1009,5 0,2
18.10.2018 15:00:00 14,9 12,2 9 5 32 17 ENE 1009,6 0,1
18.10.2018 14:00:00 16,4 10,9 9 5 28 15 ENE 1009,6 -
18.10.2018 13:00:00 18,2 10,5 8 4 27 15 ENE 1009,0 0,0
18.10.2018 12:00:00 17,1 11,8 5 3 14 7 ENE 1009,6 0,0
18.10.2018 11:00:00 14,0 11,1 6 3 12 6 ENE 1010,9 0,0
18.10.2018 10:00:00 11,1 9,6 0 0 3 2 WNW 1011,6 0,0
18.10.2018 09:00:00 9,6 8,7 0 0 6 3 N 1012,1 0,0
18.10.2018 08:00:00 10,0 8,9 1 0 5 3 ENE 1011,7 -
18.10.2018 07:00:00 10,3 9,0 0 0 4 2 N 1011,8 0,0
18.10.2018 06:00:00 10,4 9,0 1 0 8 4 E 1011,7 0,0
18.10.2018 05:00:00 10,6 8,9 1 1 8 4 E 1012,1 0,0
18.10.2018 04:00:00 11,4 9,3 2 1 7 4 E 1012,7 0,0
18.10.2018 03:00:00 11,9 9,0 0 0 5 3 N 1013,5 0,0
18.10.2018 02:00:00 12,3 8,8 1 0 6 3 SE 1013,8 -
18.10.2018 01:00:00 13,6 8,4 1 1 13 7 E 1014,0 0,0
18.10.2018 00:00:00 14,4 8,4 4 2 16 9 SE 1013,8 0,0
17.10.2018 23:00:00 14,7 7,7 6 3 13 7 SE 1014,1 0,0
17.10.2018 22:00:00 14,9 7,1 1 1 5 3 E 1013,7 0,0
17.10.2018 21:00:00 15,9 7,4 2 1 3 2 E 1013,3 0,0
17.10.2018 20:00:00 17,5 6,1 1 1 6 4 E 1012,7 -
17.10.2018 19:00:00 20,1 5,3 2 1 9 5 W 1011,7 0,0
17.10.2018 18:00:00 21,5 6,2 5 3 10 6 W 1011,8 0,0
17.10.2018 17:00:00 22,2 6,8 3 2 12 7 S 1012,0 0,0
17.10.2018 16:00:00 21,5 7,0 3 1 10 5 NW 1012,6 0,0
17.10.2018 15:00:00 20,3 7,3 3 1 9 5 WSW 1013,8 0,0
17.10.2018 14:00:00 19,8 9,0 2 1 13 7 N 1015,0 -
17.10.2018 13:00:00 17,8 10,4 3 2 11 6 W 1016,4 0,0
17.10.2018 12:00:00 14,4 12,2 4 2 12 7 WSW 1017,8 0,0
17.10.2018 11:00:00 12,0 11,7 3 2 11 6 W 1018,7 0,0
17.10.2018 10:00:00 11,0 10,6 2 1 9 5 W 1019,1 0,0
17.10.2018 09:00:00 10,8 10,3 3 2 9 5 SW 1018,7 0,0
17.10.2018 08:00:00 10,7 10,3 0 0 0 0 N 1018,6 -
17.10.2018 07:00:00 10,6 10,2 0 0 0 0 N 1018,6 0,0
17.10.2018 06:00:00 10,0 9,6 0 0 0 0 N 1018,8 0,0
17.10.2018 05:00:00 10,5 9,9 0 0 1 0 N 1018,4 0,0
17.10.2018 04:00:00 10,9 10,2 0 0 0 0 N 1018,3 0,0
17.10.2018 03:00:00 11,5 10,4 0 0 0 0 N 1018,4 0,0
17.10.2018 02:00:00 12,2 10,8 0 0 0 0 N 1018,2 -
17.10.2018 01:00:00 12,8 10,9 0 0 0 0 N 1018,2 0,0
17.10.2018 00:00:00 13,6 10,5 0 0 6 3 E 1017,8 0,0
16.10.2018 23:00:00 14,8 10,0 1 1 11 6 ENE 1017,5 0,0
16.10.2018 22:00:00 15,7 9,6 3 2 10 5 ENE 1016,7 0,0
16.10.2018 21:00:00 16,4 9,3 4 2 12 6 ENE 1015,7 0,0
16.10.2018 20:00:00 17,6 7,6 6 3 17 9 E 1015,0 -
16.10.2018 19:00:00 19,1 7,8 3 2 14 8 E 1013,9 0,0
16.10.2018 18:00:00 19,5 7,8 3 2 17 9 ENE 1013,5 0,0
16.10.2018 17:00:00 21,8 7,6 5 3 23 12 E 1012,5 0,0
16.10.2018 16:00:00 22,0 7,7 6 4 21 12 ENE 1012,2 0,0
16.10.2018 15:00:00 21,6 8,5 7 4 23 13 E 1011,9 0,0
16.10.2018 14:00:00 20,1 9,3 6 3 22 12 NE 1012,8 -
16.10.2018 13:00:00 18,7 9,7 5 3 18 10 NE 1013,4 0,0
16.10.2018 12:00:00 15,3 10,3 3 2 9 5 NE 1014,3 0,0
16.10.2018 11:00:00 12,4 9,6 4 2 10 6 E 1015,3 0,0
16.10.2018 10:00:00 11,4 9,3 0 0 7 4 NE 1014,9 0,0
16.10.2018 09:00:00 10,6 9,6 1 1 6 3 WSW 1014,3 0,0
16.10.2018 08:00:00 10,0 9,0 0 0 10 5 SW 1013,7 -
16.10.2018 07:00:00 10,2 9,3 0 0 9 5 WSW 1013,2 0,0
16.10.2018 06:00:00 10,3 9,4 1 1 6 3 WSW 1013,1 0,0
16.10.2018 05:00:00 10,4 9,4 1 0 5 3 WSW 1012,6 0,1
16.10.2018 04:00:00 10,4 9,0 0 0 4 2 N 1013,0 0,2
16.10.2018 03:00:00 10,5 8,1 0 0 4 2 N 1013,5 0,0
16.10.2018 02:00:00 10,3 7,6 0 0 5 3 ENE 1013,6 -
16.10.2018 01:00:00 10,4 7,4 1 0 5 3 ENE 1013,7 0,0
16.10.2018 00:00:00 10,5 6,7 0 0 3 2 NE 1013,6 0,0
15.10.2018 23:00:00 11,7 5,8 0 0 0 0 N 1012,9 0,0
15.10.2018 22:00:00 12,6 5,8 3 1 10 5 WSW 1012,4 0,0
15.10.2018 21:00:00 13,5 5,9 3 2 16 8 WNW 1012,0 0,0
15.10.2018 20:00:00 14,5 5,0 3 2 18 10 W 1011,3 -
15.10.2018 19:00:00 15,5 4,5 9 5 31 17 W 1010,5 0,0
15.10.2018 18:00:00 17,6 4,1 13 7 29 16 W 1009,7 0,0
15.10.2018 17:00:00 17,1 3,4 10 5 34 19 W 1009,3 0,0
15.10.2018 16:00:00 16,1 2,5 11 6 30 16 W 1009,4 0,0
15.10.2018 15:00:00 15,0 2,9 10 5 30 16 W 1010,8 0,0
15.10.2018 14:00:00 14,4 4,3 10 5 38 21 WSW 1011,7 -
15.10.2018 13:00:00 14,0 4,8 11 6 33 18 W 1011,9 0,0
15.10.2018 12:00:00 13,1 6,4 10 5 30 16 WSW 1012,2 0,0
15.10.2018 11:00:00 12,0 7,3 12 6 27 15 W 1012,2 0,0
15.10.2018 10:00:00 10,0 7,3 11 6 27 15 W 1012,5 0,0
15.10.2018 09:00:00 9,3 6,7 6 3 23 12 W 1011,9 0,0
15.10.2018 08:00:00 9,8 6,4 10 5 31 17 W 1011,5 -
15.10.2018 07:00:00 10,5 6,2 9 5 29 16 W 1010,9 0,0
15.10.2018 06:00:00 10,6 6,4 9 5 29 15 W 1010,8 0,0
15.10.2018 05:00:00 11,0 6,1 14 8 28 15 W 1010,5 0,0
15.10.2018 04:00:00 10,9 6,2 10 5 21 11 W 1010,8 0,0
15.10.2018 03:00:00 11,0 6,1 8 4 21 11 W 1010,9 0,0
15.10.2018 02:00:00 10,7 5,5 8 4 28 15 W 1011,0 -
15.10.2018 01:00:00 11,1 5,6 11 6 26 14 W 1010,7 0,0
15.10.2018 00:00:00 11,0 5,1 10 5 23 12 W 1010,2 0,0
14.10.2018 23:00:00 11,5 5,6 7 4 25 14 W 1010,3 0,0
14.10.2018 22:00:00 12,1 5,5 11 6 24 13 W 1010,4 0,0
14.10.2018 21:00:00 12,1 4,6 13 7 28 15 W 1010,5 0,0
14.10.2018 20:00:00 12,9 3,8 10 5 39 21 W 1009,4 -
14.10.2018 19:00:00 14,3 3,0 11 6 37 20 W 1008,5 0,0
14.10.2018 18:00:00 15,1 3,8 18 10 44 24 W 1007,9 0,0
14.10.2018 17:00:00 15,4 9,3 22 12 49 27 W 1007,6 0,0
14.10.2018 16:00:00 14,3 11,4 14 8 36 19 W 1008,1 0,2

tt = temperature
td = dewpoint
ff = wind speed
fx = gusts
dd = wind direction
ppp = reduced air pressure
rr = precipitation

Next stations